Tracking 19192 objects as of 18-Jun-2018
HD Live streaming from Space Station
objects crossing your sky now

FENGYUN 1C DEB

Track FENGYUN 1C DEB now!
10-day predictions


NORAD ID: 30613
Int'l Code: 1999-025AMU
Perigee: 595.5 km
Apogee: 910.6 km
Inclination: 98.5 °
Period: 99.7 minutes
Semi major axis: 7124 km
RCS: 0.0146 m2 (small)
Launch date: May 10, 1999
Source: People's Republic of China (PRC)
Launch site: Taiyaun Space Center, China (TSC)

Note: This is SATELLITE DEBRIS
aabbcc
Your satellite tracking list
Your tracking list is empty




NASA's NSSDC Master Catalog

Two Line Element Set (TLE):
1 30613U 99025AMU 18168.42317769  .00000379  00000-0  95368-4 0  9995
2 30613  98.5187 232.3603 0221140 321.2334  37.3164 14.43822866596345
Source of the keplerian elements: AFSPC